Sacramento, CA

3:46 PM PST on December 15, 2019 (GMT -0800)
Sacramento Executive

Weather History for KSAC - October, 2019

Change the Weather History Date:

Monday, October 21, 2019

  Actual Average Record
Temperature  
Mean Temperature 69 °F -  
Max Temperature 87 °F 76 °F 92 °F (1991)
Min Temperature 51 °F 49 °F 38 °F (1949)
Degree Days  
Heating Degree Days 0    
Cooling Degree Days 4    
Growing Degree Days 19 (Base 50)    
Moisture  
Dew Point 42 °F    
Average Humidity 48    
Maximum Humidity 77    
Minimum Humidity 19    
Precipitation  
Precipitation 0.00 in 0.04 in 0.29 in (1970)
Month to date precipitation 0.00 0.52  
Year to date precipitation 19.49 12.76  
Sea Level Pressure  
Sea Level Pressure 30.12 in    
Wind  
Wind Speed 6 mph (NNW)    
Max Wind Speed 23 mph    
Max Gust Speed 28 mph    
Visibility 10 miles    
Events      
T = Trace of Precipitation, MM = Missing Value Source: NWS Daily Summary

Daily Weather History Graph

Daily Weather History Graph

Search for Another Location

Airport or City:

Astronomy

Oct. 21, 2019 Rise Set
Actual Time 7:20 AM PDT 6:19 PM PDT
Civil Twilight 6:53 AM PDT 6:46 PM PDT
Nautical Twilight 6:23 AM PDT 7:17 PM PDT
Astronomical Twilight 5:52 AM PDT 7:48 PM PDT
Moon No Moon Rise 2:40 PM PDT (10/21)
Length of Visible Light 11h 52m
Length of Day
10h 58m
Waning Gibbous, 47% of the Moon is Illuminated
Oct 21
Waning Gibbous
Oct 27
New
Nov 4
First Quarter
Nov 12
Full
Nov 19
Last Quarter

Hourly Weather History & Observations

Time (PDT) Temp. Dew Point Humidity Pressure Visibility Wind Dir Wind Speed Gust Speed Precip Events Conditions
12:53 AM 57.0 °F 45.0 °F 64% 30.10 in 10.0 mi Calm Calm - N/A   Clear
1:53 AM 55.0 °F 44.1 °F 67% 30.11 in 10.0 mi West 3.5 mph - N/A   Clear
2:53 AM 57.9 °F 44.1 °F 60% 30.11 in 10.0 mi WNW 4.6 mph - N/A   Clear
3:53 AM 54.0 °F 44.1 °F 69% 30.11 in 10.0 mi Calm Calm - N/A   Clear
4:53 AM 54.0 °F 44.1 °F 69% 30.10 in 10.0 mi Calm Calm - N/A   Clear
5:53 AM 52.0 °F 45.0 °F 77% 30.12 in 10.0 mi Calm Calm - N/A   Clear
7:53 AM 59.0 °F 45.0 °F 60% 30.14 in 10.0 mi NNW 8.1 mph - N/A   Clear
8:53 AM 62.1 °F 45.0 °F 53% 30.16 in 10.0 mi NNW 11.5 mph - N/A   Clear
9:53 AM 68.0 °F 45.0 °F 43% 30.16 in 10.0 mi North 10.4 mph - N/A   Clear
10:53 AM 71.1 °F 46.0 °F 41% 30.16 in 10.0 mi North 8.1 mph - N/A   Clear
11:53 AM 79.0 °F 42.1 °F 27% 30.15 in 10.0 mi NW 12.7 mph 21.9 mph N/A   Clear
12:53 PM 82.9 °F 39.9 °F 22% 30.13 in 10.0 mi NNW 18.4 mph - N/A   Clear
1:53 PM 86.0 °F 39.9 °F 20% 30.11 in 10.0 mi NNW 16.1 mph - N/A   Clear
2:53 PM 86.0 °F 41.0 °F 20% 30.09 in 10.0 mi NNW 18.4 mph 26.5 mph N/A   Clear
3:53 PM 86.0 °F 39.0 °F 19% 30.08 in 10.0 mi NNW 19.6 mph 26.5 mph N/A   Clear
4:53 PM 86.0 °F 39.0 °F 19% 30.08 in 10.0 mi NNW 15.0 mph 20.7 mph N/A   Clear
5:53 PM 82.0 °F 39.9 °F 22% 30.08 in 10.0 mi NNW 12.7 mph - N/A   Clear
6:53 PM 78.1 °F 39.9 °F 25% 30.09 in 10.0 mi NW 8.1 mph - N/A   Clear
7:53 PM 73.9 °F 39.9 °F 29% 30.10 in 10.0 mi NW 6.9 mph - N/A   Clear
8:53 PM 71.1 °F 41.0 °F 34% 30.11 in 10.0 mi WNW 9.2 mph - N/A   Clear
9:53 PM 70.0 °F 41.0 °F 35% 30.12 in 10.0 mi NNW 8.1 mph - N/A   Clear
10:53 PM 69.1 °F 41.0 °F 36% 30.13 in 10.0 mi NNW 9.2 mph - N/A   Clear
11:53 PM 63.0 °F 41.0 °F 45% 30.15 in 10.0 mi NE 4.6 mph - N/A   Clear